www.pogodaiklimat.ru

Погода и климат >> Архив погоды >> Ирландия >> Sherkin Island


ПОГОДА в Sherkin Island

  • Прогноз погоды в Sherkin Island
  • Монитор погоды в Sherkin Island
  • Климат города

АРХИВ ПОГОДЫ в Sherkin Island

Время (UTC), дата Ветер
(напр.,м/с)
 
Видим.   Явления Облачность Т
(С)
Тd
(С)
f
(%)
Тe
(С)
Тes
(С)
Комфортность P
(гПа)
Po
(гПа)
Тmin
(С)
Tmax
(С)
R
(мм)
R24
(мм)
S
(см)
10 17.04 Ю 12
{17}
6000 м дымка н/о +11.9 +9.4 85 +8 +8 1002.9 1000.3
11 17.04 Ю 11 6000 м дымка н/о +12.4 +9.7 84 +9 +9 1003.9 1001.3
12 17.04 Ю 13
{18}
6000 м дымка н/о +12.5 +9.5 82 +9 +9 1005.0 1002.4
14 17.04 Ю 12 5000 м дымка н/о +12.5 +10.0 85 +9 +9 1007.0 1004.4
13 17.04 Ю 11 5000 м дымка н/о +12.5 +9.9 84 +9 +9 1005.9 1003.3
15 17.04 Ю 12 5000 м дымка н/о +12.1 +9.7 85 +8 +8 1007.5 1004.9
16 17.04 Ю 11 5000 м дымка н/о +12.2 +9.6 84 +8 +8 1008.0 1005.4
17 17.04 Ю 11 5000 м н/о +11.4 +9.4 88 +7 +7 1008.7 1006.1
18 17.04 Ю 11 6000 м дымка н/о +11.0 +9.3 89 +7 +7 1009.5 1006.9 +12.8
20 17.04 Ю 11 6000 м дымка н/о +10.8 +9.5 92 +6 +6 1010.6 1008.0
19 17.04 Ю 9 5000 м дымка н/о +10.9 +9.5 91 +7 +7 1009.8 1007.2
21 17.04 Ю 11 6000 м дымка н/о +10.9 +9.7 92 +6 +6 1010.7 1008.1
22 17.04 Ю 10 6000 м в посл. час морось {ливн. осадки} н/о +10.8 +9.6 92 +7 +7 1011.9 1009.2
23 17.04 Ю 9 6000 м слаб. ливневой дождь н/о +10.6 +9.6 94 +6 +6 1012.3 1009.6
00 18.04 Ю 9 7000 м в посл. час дождь {ливн. осадки, дымка} н/о +10.6 +9.6 94 +6 +6 1012.6 1009.9 0.4
02 18.04 Ю 7 6000 м дымка н/о +10.3 +9.5 95 +6 +6 1013.0 1010.4
01 18.04 Ю 9 4900 м в посл. час морось {ливн. осадки} н/о +10.5 +9.7 95 +6 +6 1012.9 1010.3
03 18.04 Ю 8 8000 м дымка {ливн. осадки} н/о +10.5 +9.4 93 +7 +7 1013.3 1010.7
04 18.04 Ю 7 8000 м дымка н/о +10.4 +9.2 92 +7 +7 1013.9 1011.3
05 18.04 Ю 9 9000 м дымка н/о +10.5 +9.5 94 +6 +6 1014.1 1011.5
06 18.04 Ю 9 5000 м дымка {ливн. осадки} н/о +10.8 +10.0 95 +7 +7 1014.3 1011.7 +10.2 0.6
08 18.04 Ю 8 2300 м дымка н/о +10.7 +10.2 97 +7 +7 1014.6 1012.0
07 18.04 Ю 9 4500 м в посл. час морось н/о +10.9 +10.1 95 +7 +7 1014.5 1011.9
09 18.04 Ю 10 2000 м в посл. час дождь {ливн. осадки, морось} н/о +10.9 +10.3 96 +7 +7 1014.4 1011.8
10 18.04 Ю 13
{18}
3900 м слаб. дождь н/о +11.3 +10.6 95 +7 +7 1014.3 1011.7
11 18.04 Ю 11
{18}
7000 м дымка {ливн. осадки} н/о +11.7 +10.6 93 +8 +8 1014.4 1011.8
12 18.04 Ю 11 7000 м дымка {ливн. осадки, дождь} н/о +11.6 +10.3 92 +7 +7 1014.4 1011.8 0.4
14 18.04 Ю 9 8000 м дымка н/о +12.1 +10.4 89 +9 +9 1014.1 1011.5
13 18.04 ЮВ 9 7000 м дымка н/о +11.3 +10.1 92 +7 +7 1014.3 1011.7
15 18.04 Ю 13
{18}
9000 м дымка н/о +11.6 +10.0 90 +7 +7 1014.0 1011.4
16 18.04 Ю 12
{18}
8000 м дымка н/о +11.6 +10.1 91 +7 +7 1014.0 1011.4
17 18.04 Ю 10 8000 м дымка н/о +11.5 +10.0 90 +8 +8 1014.1 1011.5
18 18.04 Ю 10 7000 м дымка н/о +11.3 +9.9 91 +7 +7 1014.5 1011.9 +12.1 0.4
20 18.04 Ю 7 7000 м дымка н/о +10.8 +9.6 92 +7 +7 1016.1 1013.5
19 18.04 Ю 8 7000 м дымка н/о +11.0 +9.7 92 +7 +7 1015.2 1012.5
21 18.04 Ю 6 6000 м дымка н/о +10.5 +9.4 93 +7 +7 1017.0 1014.3
22 18.04 Ю 7 6000 м дымка н/о +10.5 +9.5 94 +7 +7 1017.1 1014.5
23 18.04 Ю 7 2100 м дымка н/о +10.6 +9.8 95 +7 +7 1017.4 1014.8
00 19.04 Ю 5 2700 м дымка н/о +10.3 +9.7 96 +7 +7 1017.3 1014.7 0.1
02 19.04 Ю 5 600 м туман ?/? +10.1 +9.7 97 +7 +7 1017.5 1014.9
01 19.04 Ю 5 2700 м дымка н/о +10.3 +9.7 96 +7 +7 1017.5 1014.8
03 19.04 Ю 6 1800 м сильн. морось {туман} н/о +10.2 +9.8 97 +7 +7 1017.7 1015.0
04 19.04 Ю 6 400 м туман ?/? +10.3 +9.9 97 +7 +7 1017.7 1015.1
05 19.04 Ю 5 700 м туман ?/? +9.7 +9.3 97 +6 +6 1018.3 1015.7
06 19.04 Ю 5 2800 м в посл. час туман {морось} н/о +9.8 +9.4 97 +6 +6 1018.8 1016.1 +9.6 1
08 19.04 ЮЗ 5 7000 м дымка н/о +10.4 +9.9 97 +7 +7 1020.1 1017.5
07 19.04 Ю 6 5000 м дымка н/о +10.1 +9.6 97 +6 +6 1019.5 1016.9
09 19.04 ЮЗ 4 8000 м дымка н/о +10.3 +9.7 96 +8 +8 1021.2 1018.5
10 19.04 Ю 4 13 км н/о +11.2 +10.5 95 +9 +9 1022.3 1019.6
11 19.04 ЮЗ 4 8000 м дымка н/о +11.3 +10.4 94 +9 +9 1022.6 1020.0
12 19.04 Ю 5 19 км н/о +11.8 +10.6 92 +9 +9 1023.2 1020.6
14 19.04 ЮЗ 4 14 км н/о +12.3 +10.6 89 +10 +10 1023.8 1021.2
13 19.04 Ю 5 17 км н/о +12.3 +10.7 90 +10 +10 1023.5 1020.9
15 19.04 ЮЗ 4 9000 м дымка н/о +12.2 +10.3 88 +10 +10 1023.9 1021.3
16 19.04 ЮЗ 3 9000 м дымка н/о +12.3 +10.6 89 +11 +11 1024.2 1021.6
17 19.04 ЮЗ 4 7000 м дымка н/о +11.7 +10.0 89 +9 +9 1024.4 1021.8
18 19.04 ЮЗ 3 6000 м дымка н/о +11.2 +9.8 91 +9 +9 1024.6 1022.0 +12.6
20 19.04 ЮЗ 3 200 м туман ?/? +9.9 +9.1 95 +8 +8 1025.4 1022.7
19 19.04 Ю 3 5000 м дымка н/о +10.6 +9.6 94 +8 +8 1024.8 1022.2
21 19.04 ЮЗ 2 200 м туман {дымка} ?/? +9.5 +9.1 97 +8 +8 1025.5 1022.9
22 19.04 ЮЗ 2 400 м туман ?/? +9.6 +9.1 97 +8 +8 1025.7 1023.1
23 19.04 ЮЗ 1 6000 м в посл. час туман н/о +9.4 +8.7 95 +9 +9 1026.1 1023.4
00 20.04 Ю 3 7000 м дымка {туман} н/о +9.5 +8.8 95 +7 +7 1026.0 1023.4 0.1
02 20.04 Ю 2 400 м туман н/о +9.3 +8.8 97 +7 +7 1025.8 1023.2
01 20.04 ЮЗ 2 200 м туман ?/? +9.3 +8.7 96 +7 +7 1026.2 1023.5
03 20.04 Ю 3 11 км в посл. час туман н/о +9.6 +9.1 97 +7 +7 1025.7 1023.0
04 20.04 Ю 3 8000 м дымка н/о +9.3 +8.8 97 +7 +7 1025.7 1023.0
05 20.04 ЮЗ 3 6000 м дымка н/о +9.4 +8.9 97 +7 +7 1025.6 1023.0
06 20.04 ЮЗ 2 4300 м дымка {туман} н/о +9.2 +8.6 96 +7 +7 1026.0 1023.3 +9.0 0.2
08 20.04 З 2 3900 м дымка н/о +10.2 +9.5 95 +9 +9 1026.4 1023.8
07 20.04 З 4 8000 м дымка н/о +10.0 +9.4 96 +7 +7 1026.1 1023.4
09 20.04 ЮЗ 3 11 км н/о +10.9 +10.0 94 +9 +9 1026.6 1024.0
10 20.04 ЮЗ 4 15 км н/о +11.4 +9.9 90 +9 +9 1026.9 1024.2
11 20.04 ЮЗ 4 15 км н/о +11.3 +9.5 89 +9 +9 1027.0 1024.3
12 20.04 ЮЗ 5 15 км н/о +11.6 +9.7 88 +9 +9 1027.0 1024.3
14 20.04 ЮЗ 5 19 км н/о +11.9 +9.4 85 +9 +9 1026.5 1023.9
13 20.04 ЮЗ 6 24 км н/о +12.1 +9.3 83 +9 +9 1026.8 1024.1
15 20.04 ЮЗ 5 24 км н/о +11.7 +9.1 84 +9 +9 1026.2 1023.5
16 20.04 ЮЗ 6 21 км н/о +11.5 +8.7 83 +9 +9 1025.8 1023.2
17 20.04 ЮЗ 5 23 км н/о +11.3 +8.8 85 +9 +9 1025.5 1022.8
18 20.04 ЮЗ 5 22 км н/о +10.8 +8.5 86 +8 +8 1025.4 1022.8 +12.2
20 20.04 З 4 13 км н/о +9.7 +8.4 92 +7 +7 1025.5 1022.9
19 20.04 ЮЗ 5 16 км н/о +10.3 +8.4 88 +7 +7 1025.3 1022.7
21 20.04 З 4 13 км н/о +9.2 +8.1 93 +6 +6 1025.5 1022.8
22 20.04 З 3 15 км н/о +8.7 +7.4 92 +6 +6 1025.0 1022.3
23 20.04 З 2 14 км н/о +8.4 +7.1 92 +6 +6 1024.6 1022.0
00 21.04 СЗ 2 18 км н/о +8.6 +7.3 92 +7 +7 1024.2 1021.6
02 21.04 В 1 27 км н/о +6.6 +5.5 93 +5 +5 1023.2 1020.5
01 21.04 В 1 35 км н/о +7.0 +5.8 92 +6 +6 1023.7 1021.0
03 21.04 В 2 22 км н/о +6.3 +5.2 93 +4 +4 1022.6 1019.9
04 21.04 штиль 0 27 км н/о +6.3 +5.4 94 +5 +5 1022.0 1019.3
05 21.04 СВ 2 9000 м туман н/о +4.7 +4.2 97 +2 +2 1021.4 1018.7
06 21.04 СВ 2 900 м туман н/о +4.6 +4.1 97 +2 +2 1021.1 1018.4 +3.9 0.3
08 21.04 Ю 1 25 км н/о +8.4 +7.7 95 +8 +8 1020.2 1017.5
07 21.04 СВ 2 18 км в посл. час туман н/о +6.2 +5.6 96 +4 +4 1020.7 1018.0
09 21.04 С 1 30 км {туман} н/о +8.8 +7.9 94 +8 +8 1020.0 1017.4
10 21.04 ЮЗ 2 25 км н/о +10.9 +8.8 87 +10 +10 1019.4 1016.8
11 21.04 ЮЗ 3 28 км н/о +11.1 +8.1 82 +9 +9 1018.9 1016.3
12 21.04 ЮЗ 3 25 км {туман} н/о +11.1 +7.8 80 +9 +9 1018.2 1015.6
14 21.04 ЮЗ 4 30 км н/о +11.0 +7.6 80 +9 +9 1016.4 1013.8
13 21.04 ЮЗ 3 27 км н/о +11.2 +7.9 80 +9 +9 1017.2 1014.5
15 21.04 Ю 3 28 км н/о +11.7 +8.6 81 +10 +10 1015.2 1012.6
16 21.04 Ю 3 35 км н/о +12.0 +9.0 82 +10 +10 1014.2 1011.6
17 21.04 Ю 4 40 км н/о +11.2 +8.1 81 +9 +9 1013.3 1010.7
18 21.04 Ю 4 30 км н/о +11.3 +8.3 82 +9 +9 1012.3 1009.7 +12.1
20 21.04 Ю 4 35 км н/о +10.4 +8.7 89 +8 +8 1011.3 1008.7
19 21.04 Ю 4 45 км н/о +10.3 +8.2 87 +8 +8 1011.9 1009.3
21 21.04 Ю 5 17 км слаб. ливневой дождь н/о +10.3 +8.8 90 +7 +7 1010.9 1008.3
22 21.04 ЮЗ 5 4400 м морось н/о +10.0 +9.0 93 +7 +7 1010.4 1007.8
23 21.04 Ю 7 6000 м морось {дождь} н/о +9.8 +9.1 95 +6 +6 1009.5 1006.9
00 22.04 ЮЗ 6 3000 м морось {ливн. осадки, дождь} н/о +9.9 +9.2 95 +6 +6 1009.2 1006.6 5
02 22.04 ЮЗ 4 10 км в посл. час дождь н/о +9.8 +9.2 96 +7 +7 1008.3 1005.7
01 22.04 ЮЗ 5 9000 м слаб. дождь н/о +10.4 +9.8 96 +7 +7 1008.6 1006.0
03 22.04 З 4 20 км {дождь} н/о +9.4 +8.6 95 +6 +6 1008.4 1005.7
04 22.04 З 6 27 км н/о +9.1 +8.0 93 +5 +5 1008.5 1005.9
05 22.04 З 5 29 км н/о +8.8 +7.5 92 +5 +5 1008.4 1005.8
06 22.04 З 6 29 км {дождь} н/о +9.0 +7.7 92 +5 +5 1008.8 1006.2 +8.8 7
08 22.04 З 5 18 км н/о +10.3 +8.0 86 +7 +7 1010.1 1007.5
07 22.04 З 5 28 км н/о +9.4 +7.7 89 +6 +6 1009.5 1006.8
09 22.04 З 6 22 км н/о +11.0 +8.5 85 +8 +8 1010.3 1007.7
10 22.04 З 6 22 км н/о +11.9 +8.9 82 +9 +9 1010.7 1008.1
11 22.04 З 7 30 км н/о +11.3 +8.3 82 +8 +8 1010.8 1008.2
12 22.04 З 10 22 км н/о +11.1 +6.9 75 +7 +7 1011.0 1008.4
14 22.04 З 9 25 км н/о +11.9 +7.1 72 +8 +8 1011.5 1008.9
13 22.04 З 9 30 км н/о +12.0 +7.1 72 +9 +9 1011.2 1008.6
15 22.04 З 9 23 км н/о +11.4 +8.1 80 +8 +8 1011.8 1009.2
16 22.04 З 8 28 км н/о +11.8 +7.9 77 +9 +9 1011.9 1009.3
17 22.04 З 9 23 км н/о +11.9 +7.6 75 +8 +8 1012.4 1009.8
18 22.04 З 9 28 км н/о +11.2 +7.4 77 +7 +7 1012.8 1010.2 +12.4
20 22.04 З 6 19 км н/о +9.7 +7.9 89 +6 +6 1014.2 1011.5
19 22.04 З 8 19 км слаб. ливневой дождь н/о +9.7 +8.0 89 +5 +5 1013.5 1010.9
21 22.04 З 7 22 км {ливн. осадки} н/о +9.8 +7.7 87 +6 +6 1014.8 1012.2
22 22.04 З 6 24 км н/о +9.6 +7.2 85 +6 +6 1015.6 1013.0
23 22.04 З 5 30 км н/о +9.8 +6.5 80 +7 +7 1015.5 1012.8
00 23.04 З 5 29 км {ливн. осадки} н/о +9.8 +6.4 79 +7 +7 1015.8 1013.2 0.1
02 23.04 З 5 21 км н/о +9.7 +7.4 86 +6 +6 1016.0 1013.4
01 23.04 З 4 26 км н/о +9.8 +6.1 78 +7 +7 1015.8 1013.2
03 23.04 ЮЗ 8 45 км н/о +9.7 +7.6 87 +6 +6 1015.9 1013.3
04 23.04 З 5 18 км н/о +9.3 +7.8 90 +6 +6 1015.9 1013.3
05 23.04 ЮЗ 6 35 км н/о +9.8 +7.5 86 +6 +6 1015.3 1012.7
06 23.04 ЮЗ 4 17 км н/о +9.9 +7.6 86 +7 +7 1015.6 1013.0 +9.2 0.1
08 23.04 ЮЗ 6 2800 м слаб. ливневой дождь н/о +9.7 +8.3 91 +6 +6 1015.5 1012.9
07 23.04 ЮЗ 6 13 км морось н/о +10.2 +7.2 82 +7 +7 1015.3 1012.7
09 23.04 ЮЗ 5 2700 м сильн. морось {ливн. осадки} н/о +9.9 +9.0 94 +7 +7 1015.2 1012.6
10 23.04 ЮЗ 7 5000 м морось н/о +10.2 +9.5 95 +6 +6 1014.6 1012.0
11 23.04 ЮЗ 8 2900 м в посл. час морось н/о +10.9 +10.1 95 +7 +7 1014.2 1011.6
12 23.04 ЮЗ 11 4000 м слаб. ливневой дождь {морось} н/о +11.4 +10.7 95 +7 +7 1014.0 1011.3 4
14 23.04 ЮЗ 10 3200 м дымка н/о +10.9 +10.3 96 +7 +7 1014.4 1011.8
13 23.04 ЮЗ 11 3200 м дымка н/о +11.1 +10.5 96 +7 +7 1014.2 1011.6
15 23.04 З 8 5000 м слаб. морось {дымка} н/о +10.8 +10.2 96 +7 +7 1014.8 1012.2
16 23.04 З 8 15 км в посл. час морось н/о +11.9 +10.7 92 +8 +8 1014.5 1011.9
17 23.04 З 9 13 км н/о +11.4 +9.6 89 +8 +8 1015.2 1012.6
18 23.04 З 8 16 км {морось, дымка} н/о +11.3 +9.0 86 +8 +8 1015.3 1012.7 +12.3 4
20 23.04 З 5 11 км н/о +10.2 +8.8 91 +7 +7 1016.0 1013.4
19 23.04 З 7 12 км н/о +10.7 +9.0 89 +7 +7 1015.5 1012.9
21 23.04 ЮЗ 5 9000 м дымка н/о +10.0 +9.0 93 +7 +7 1016.3 1013.7
22 23.04 ЮЗ 6 9000 м дымка н/о +10.0 +9.1 94 +6 +6 1016.4 1013.7
23 23.04 ЮЗ 6 8000 м дымка н/о +10.2 +9.5 95 +7 +7 1016.2 1013.6
00 24.04 ЮЗ 5 8000 м дымка н/о +10.1 +9.4 95 +7 +7 1015.9 1013.3
02 24.04 ЮЗ 7 9000 м слаб. дождь н/о +10.1 +9.3 95 +6 +6 1015.1 1012.5
01 24.04 З 5 5000 м слаб. ливневой дождь н/о +10.0 +9.4 96 +7 +7 1015.7 1013.1
03 24.04 ЮЗ 5 10 км слаб. дождь {ливн. осадки} н/о +9.7 +8.6 93 +6 +6 1014.8 1012.1
04 24.04 ЮЗ 4 12 км морось {дождь} н/о +9.3 +8.1 92 +6 +6 1014.5 1011.8
05 24.04 ЮЗ 2 14 км морось {дождь} н/о +9.1 +8.0 93 +7 +7 1013.4 1010.8
06 24.04 ЮЗ 2 6000 м морось {ливн. осадки, дождь} н/о +8.7 +7.7 93 +7 +7 1012.8 1010.2 +8.7 5
08 24.04 В 2 4400 м слаб. дождь н/о +8.7 +8.1 96 +7 +7 1011.1 1008.5
07 24.04 В 2 6000 м слаб. ливневой дождь н/о +8.6 +7.7 94 +7 +7 1011.9 1009.3
09 24.04 С 4 7000 м дождь {ливн. осадки} н/о +8.9 +8.2 95 +6 +6 1010.6 1008.0

 

Местоположение метеостанции Sherkin Island (Ирландия): широта 51.48 долгота -9.43 высота над уровнем моря 21 м.

В архиве по умолчанию представлена погода в Sherkin Island за последнюю неделю. Архивные данные за месяц целиком и за предыдущие месяцы, начиная с января 2011 года, Вы можете получить, выбрав интересующий диапазон дат из раскрывающегося списка и нажав кнопку "Ввод!".


*Определитесь, кто Вы:
робот инопланетянин человек

Внимание! Время в таблицах - всемирное. Для получения местного времени необходимо прибавить поправку, которая в Sherkin Island равна 0 ч.

Смотрите также архив погоды в соседних городах и на ближайших метеорологических станциях:

Погода в Valentia Observatory (Ирландия) (75 км)
Погода в Cork Airport (Ирландия) (77 км)
Погода в Roches Point (Ирландия) (89 км)
Погода в Shannon Airport (Ирландия) (139 км)
Погода в Gurteen (Ирландия) (198 км)
Погода в Mace Head (Ирландия) (207 км)
Погода в Johnstown Castle (Ирландия) (221 км)
Погода в Oak Park, Carlow (Ирландия) (230 км)
Погода в Claremorris (Ирландия) (250 км)
Погода в Mullingar (Ирландия) (269 км)

Пояснения к столбцам:

Ветер - указаны скорость ветра в м/с - средняя за 10 мин, порывы в срок и между сроками (в фигурных скобках) и направление, откуда дует ветер: С - северный, СВ - северо-восточный, В - восточный, ЮВ - юго-восточный, Ю - южный, ЮЗ - юго-западный, З - западный, СЗ - северо-западный.
Видимость - горизонтальная дальность видимости в метрах или километрах. При видимости от 1 до 10 км при отсутствии осадков обычно наблюдается дымка, при ухудшении видимости до 1 км и менее - туман. В сухую погоду видимость может ухудшаться дымом, пылью или мглою.
Явления - указаны атмосферные явления, наблюдавшиеся в срок или в последний час перед сроком; фигурными скобками обозначены явления, наблюдавшиеся между сроками (за 1-3 часа до срока); квадратными скобками обозначены град или гололедные отложения с указанием их диаметра в мм.
Облачность - указаны через наклонную черту общая и нижняя облачность в баллах и высота нижней границы облаков в метрах; квадратными скобками обозначены формы облаков: Ci - перистые, Cs - перисто-слоистые, Cc - перисто-кучевые, Ac - высококучевые, As - высокослоистые, Sc - слоисто-кучевые, Ns - слоисто-дождевые, Cu - кучевые, Cb - кучево-дождевые. Подробнее классификацию облаков см. в Атласе облаков (PDF).
T - Температура воздуха - температура, измеренная на высоте 2 м над землей.
Td - Температура точки росы - температура, при понижении до которой содержащийся в воздухе водяной пар достигнет насыщения.
f - Относительная влажность воздуха - влажноcть воздуха, измеренная на высоте 2 м над землей.
Te - Эффективная температура - температура, которую ощущает одетый по сезону человек в тени. Характеристика душности погоды. При расчете учитывается влияние влажности воздуха и скорости ветра на теплоощущения человека.
Tes - Эффективная температура на солнце - температура, которую ощущает человек, с поправкой на солнечный нагрев. Характеристика знойности погоды. Зависит от высоты солнца над горизонтом, облачности и скорости ветра. Ночью, в пасмурную погоду, а также при ветре 12 м/с и более поправка равна нулю.
P - Атмосферное давление - приведенное к уровню моря атмосферное давление.
Po - Атмосферное давление - измеренное на уровне метеостанции атмосферное давление.
Tmin - Минимальная температура - минимум температуры воздуха на высоте 2 м над землей.
Tmax - Максимальная температура - максимум температуры воздуха на высоте 2 м над землей.
R - Количество осадков - Количество выпавших осадков за период времени, мм. При наведении курсора мыши на число - период времени, за который выпало указанное количество осадков.
R24 - Количество осадков - Количество выпавших осадков за 24 часа, мм.
S - Снежный покров - Высота снежного покрова, см. При наведении курсора мыши на число - состояние снежного покрова и степень покрытия местности в баллах.